Waarnemingen

Advertentie
Mijn weer
Aboyne, Groot Brittannië (3080): temperatuur & dauwpunt: 22.05.2018 11:00:00 - 28.05.2018 11:00:00 (BST)Aboyne, Groot Brittannië (3080): temperatuur -20cm & temperatuur -100cm: 22.05.2018 11:00:00 - 28.05.2018 11:00:00 (BST)Aboyne, Groot Brittannië (3080): windsnelheid: 22.05.2018 11:00:00 - 28.05.2018 11:00:00 (BST)Aboyne, Groot Brittannië (3080): windrichting: 22.05.2018 11:00:00 - 28.05.2018 11:00:00 (BST)Aboyne, Groot Brittannië (3080): luchtdruk: 22.05.2018 11:00:00 - 28.05.2018 11:00:00 (BST)Aboyne, Groot Brittannië (3080): zicht: 22.05.2018 11:00:00 - 28.05.2018 11:00:00 (BST)Aboyne, Groot Brittannië (3080): neerslag: 22.05.2018 11:00:00 - 28.05.2018 11:00:00 (BST)
Datum & Tijd tt [°C] td [°C] tt -20cm [°C] tt -100cm [°C] ff [km/u] ff [kn] dd ppp [hPa] vv [km] rr [mm]
28.05.2018 11:00:00 - - - - - - - - - -
28.05.2018 10:00:00 19,0 11,7 12,9 11,0 11 6 O 1022,2 40 0,0
28.05.2018 09:00:00 16,9 9,7 - - 4 2 WZW 1022,6 35 0,0
28.05.2018 08:00:00 14,0 8,7 - - 8 4 W 1023,1 40 0,0
28.05.2018 07:00:00 10,9 7,7 - - 8 4 WNW 1023,3 40 0,0
28.05.2018 06:00:00 7,9 6,8 - - 9 5 NW 1023,3 35 0,0
28.05.2018 05:00:00 5,9 5,3 - - 9 5 NW 1023,1 9 0,0
28.05.2018 04:00:00 6,1 5,7 - - 8 4 W 1023,1 24 0,0
28.05.2018 03:00:00 5,4 5,1 - - 5 3 NW 1023,3 30 0,0
28.05.2018 02:00:00 5,2 5,2 - - 8 4 WNW 1023,4 30 0,0
28.05.2018 01:00:00 5,8 4,8 - - 0 0 N 1023,6 22 0,0
28.05.2018 00:00:00 6,8 5,6 - - 4 2 NW 1023,8 20 0,0
27.05.2018 23:00:00 10,0 7,4 - - 4 2 N 1023,6 25 0,0
27.05.2018 22:00:00 12,1 6,7 - - 11 6 O 1022,9 30 0,0
27.05.2018 21:00:00 15,6 6,4 - - 9 5 ONO 1022,3 40 0,0
27.05.2018 20:00:00 18,2 6,3 - - 11 6 O 1022,1 40 0,0
27.05.2018 19:00:00 19,5 7,2 - - 15 8 O 1022,1 30 0,0
27.05.2018 18:00:00 20,7 6,4 - - 18 10 O 1022,1 40 0,0
27.05.2018 17:00:00 21,6 7,1 - - 22 12 O 1022,3 30 0,0
27.05.2018 16:00:00 21,4 7,5 - - 21 11 O 1022,8 30 0,0
27.05.2018 15:00:00 22,1 6,5 - - 18 10 O 1023,2 35 0,0
27.05.2018 14:00:00 21,7 5,4 - - 18 10 O 1023,7 50 0,0
27.05.2018 13:00:00 20,3 6,5 - - 16 9 O 1024,4 22 0,0
27.05.2018 12:00:00 19,8 5,3 - - 16 9 O 1025,0 30 0,0
27.05.2018 11:00:00 18,5 5,6 - - 11 6 O 1025,5 35 0,0
27.05.2018 10:00:00 16,3 5,5 12,7 10,7 8 4 OZO 1026,2 45 0,0
27.05.2018 09:00:00 13,9 6,6 - - 4 2 OZO 1027,0 35 0,0
27.05.2018 08:00:00 10,6 8,0 - - 5 3 W 1027,7 30 0,0
27.05.2018 07:00:00 7,2 6,5 - - 5 3 W 1028,3 29 0,0
27.05.2018 06:00:00 4,6 4,6 - - 8 4 WNW 1028,6 12 0,0
27.05.2018 05:00:00 3,3 3,3 - - 8 4 WNW 1028,8 9 0,0
27.05.2018 04:00:00 4,2 4,2 - - 5 3 W 1029,3 5 0,0
27.05.2018 03:00:00 3,6 3,6 - - 5 3 W 1030,0 2,1 0,0
27.05.2018 02:00:00 3,6 3,5 - - 4 2 WNW 1030,6 7 0,0
27.05.2018 01:00:00 4,4 4,1 - - 4 2 W 1030,8 8 0,0
27.05.2018 00:00:00 5,6 4,9 - - 2 1 WNW 1031,1 14 0,0
26.05.2018 23:00:00 7,8 6,5 - - 2 1 Z 1031,1 26 0,0
26.05.2018 22:00:00 10,5 6,8 - - 4 2 NNO 1030,8 35 0,0
26.05.2018 21:00:00 14,8 8,3 - - 5 3 O 1030,3 40 0,0
26.05.2018 20:00:00 17,0 8,4 - - 13 7 ONO 1029,9 50 0,0
26.05.2018 19:00:00 18,5 10,5 - - 15 8 ONO 1029,8 45 0,0
26.05.2018 18:00:00 19,9 10,9 - - 16 9 ONO 1029,8 30 0,0
26.05.2018 17:00:00 21,0 9,2 - - 21 11 O 1029,5 30 0,0
26.05.2018 16:00:00 21,6 10,8 - - 16 9 ONO 1029,7 35 0,0
26.05.2018 15:00:00 21,1 10,4 - - 18 10 O 1030,2 19 0,0
26.05.2018 14:00:00 19,9 11,1 - - 16 9 O 1030,5 24 0,0
26.05.2018 13:00:00 18,7 11,5 - - 11 6 O 1030,8 30 0,0
26.05.2018 12:00:00 17,2 10,8 - - 8 4 O 1031,1 19 0,0
26.05.2018 11:00:00 15,3 10,4 - - 5 3 ZZO 1031,3 35 0,0
26.05.2018 10:00:00 12,6 8,9 12,7 10,7 4 2 ZO 1031,9 26 0,0
26.05.2018 09:00:00 11,0 8,6 - - 8 4 WZW 1032,1 24 0,0
26.05.2018 08:00:00 9,8 8,1 - - 8 4 WZW 1032,1 21 0,0
26.05.2018 07:00:00 8,8 7,6 - - 8 4 W 1032,2 18 0,0
26.05.2018 06:00:00 7,8 6,9 - - 5 3 WNW 1032,0 17 0,0
26.05.2018 05:00:00 7,7 6,8 - - 8 4 WNW 1031,3 15 0,0
26.05.2018 04:00:00 7,6 6,6 - - 11 6 W 1031,3 15 0,0
26.05.2018 03:00:00 8,8 7,6 - - 9 5 W 1031,0 15 0,0
26.05.2018 02:00:00 8,8 8,0 - - 5 3 W 1031,2 15 0,0
26.05.2018 01:00:00 7,2 7,2 - - 4 2 W 1031,5 11 0,0
26.05.2018 00:00:00 6,5 6,1 - - 4 2 WNW 1031,3 10 0,0
25.05.2018 23:00:00 7,7 6,4 - - 4 2 W 1030,7 17 0,0
25.05.2018 22:00:00 9,8 6,5 - - 4 2 NNW 1030,0 21 0,0
25.05.2018 21:00:00 13,3 7,1 - - 13 7 NNO 1028,9 35 0,0
25.05.2018 20:00:00 15,4 6,8 - - 13 7 NNO 1028,5 30 0,0
25.05.2018 19:00:00 16,9 7,4 - - 11 6 N 1028,2 35 0,0
25.05.2018 18:00:00 18,1 6,4 - - 13 7 NNO 1027,8 45 0,0
25.05.2018 17:00:00 19,3 7,3 - - 13 7 NNO 1027,5 28 0,0
25.05.2018 16:00:00 20,0 6,9 - - 13 7 NO 1027,4 30 0,0
25.05.2018 15:00:00 19,5 9,2 - - 13 7 NNO 1027,4 27 0,0
25.05.2018 14:00:00 19,3 9,5 - - 13 7 NO 1027,5 40 0,0
25.05.2018 13:00:00 18,5 10,5 - - 13 7 NO 1027,4 30 0,0
25.05.2018 12:00:00 17,4 10,4 - - 13 7 NW 1027,6 30 0,0
25.05.2018 11:00:00 18,2 10,4 - - 15 8 N 1027,3 35 0,0
25.05.2018 10:00:00 18,7 10,5 12,2 10,5 9 5 N 1026,8 28 0,0
25.05.2018 09:00:00 16,2 8,8 - - 9 5 W 1026,7 30 0,0
25.05.2018 08:00:00 12,8 7,5 - - 9 5 WNW 1026,7 40 0,0
25.05.2018 07:00:00 9,9 6,8 - - 11 6 WNW 1026,6 40 0,0
25.05.2018 06:00:00 7,0 5,9 - - 9 5 WNW 1026,7 50 0,0
25.05.2018 05:00:00 5,0 4,3 - - 8 4 WNW 1026,5 27 0,0
25.05.2018 04:00:00 6,0 5,0 - - 8 4 W 1026,3 40 0,0
25.05.2018 03:00:00 5,5 5,2 - - 8 4 NW 1026,3 35 0,0
25.05.2018 02:00:00 5,7 5,6 - - 5 3 WZW 1026,3 35 0,0
25.05.2018 01:00:00 5,4 4,4 - - 5 3 WNW 1026,5 30 0,0
25.05.2018 00:00:00 6,5 5,0 - - 4 2 NW 1026,4 26 0,0
24.05.2018 23:00:00 7,7 4,4 - - 4 2 O 1026,1 50 0,0
24.05.2018 22:00:00 10,5 5,0 - - 5 3 ONO 1025,5 50 0,0
24.05.2018 21:00:00 14,8 6,3 - - 4 2 O 1024,7 40 0,0
24.05.2018 20:00:00 17,3 6,6 - - 8 4 ZZW 1024,4 40 0,0
24.05.2018 19:00:00 19,3 8,0 - - 9 5 ZZO 1024,2 35 0,0
24.05.2018 18:00:00 20,3 8,3 - - 13 7 ZZW 1024,0 45 0,0
24.05.2018 17:00:00 20,6 7,6 - - 13 7 ZZW 1024,2 30 0,0
24.05.2018 16:00:00 20,8 7,0 - - 15 8 Z 1024,3 40 0,0
24.05.2018 15:00:00 20,9 6,5 - - 18 10 Z 1024,3 35 0,0
24.05.2018 14:00:00 20,3 7,5 - - 21 11 ZZO 1024,6 30 0,0
24.05.2018 13:00:00 20,5 8,7 - - 15 8 Z 1024,7 35 0,0
24.05.2018 12:00:00 18,5 10,1 - - 15 8 O 1025,1 40 0,0
24.05.2018 11:00:00 14,8 9,0 - - 8 4 ONO 1025,9 45 0,0
24.05.2018 10:00:00 11,0 7,9 12,0 10,2 4 2 OZO 1026,8 22 0,0
24.05.2018 09:00:00 6,4 6,4 - - 5 3 OZO 1027,5 17 0,0
24.05.2018 08:00:00 5,5 5,5 - - 4 2 OZO 1027,6 0,6 0,0
24.05.2018 07:00:00 4,5 4,5 - - 4 2 ZZO 1027,8 1,1 0,0
24.05.2018 06:00:00 4,5 4,5 - - 2 1 ZO 1027,7 0,3 0,0
24.05.2018 05:00:00 4,3 4,3 - - 5 3 ZZO 1027,9 0,2 0,0
24.05.2018 04:00:00 4,7 4,7 - - 5 3 ZZO 1028,3 0,3 0,0
24.05.2018 03:00:00 5,1 5,1 - - 4 2 ZZO 1028,5 0,2 0,0
24.05.2018 02:00:00 5,8 5,8 - - 4 2 ZO 1028,7 1,6 0,0
24.05.2018 01:00:00 3,1 3,0 - - 5 3 O 1028,8 7 0,0
24.05.2018 00:00:00 4,8 4,7 - - 5 3 O 1028,7 7 0,0
23.05.2018 23:00:00 6,5 5,6 - - 9 5 O 1028,5 13 0,0
23.05.2018 22:00:00 8,6 7,0 - - 11 6 O 1027,9 22 0,0
23.05.2018 21:00:00 11,2 7,8 - - 15 8 O 1027,2 40 0,0
23.05.2018 20:00:00 13,2 8,3 - - 16 9 O 1026,8 35 0,0
23.05.2018 19:00:00 15,1 9,2 - - 21 11 ONO 1026,4 35 0,0
23.05.2018 18:00:00 16,8 9,7 - - 21 11 O 1026,3 45 0,0
23.05.2018 17:00:00 18,2 9,7 - - 21 11 O 1026,2 22 0,0
23.05.2018 16:00:00 17,7 10,3 - - 24 13 O 1026,5 30 0,0
23.05.2018 15:00:00 17,4 10,2 - - 21 11 O 1026,9 40 0,0
23.05.2018 14:00:00 16,8 9,6 - - 16 9 O 1027,3 30 0,0
23.05.2018 13:00:00 15,3 9,0 - - 15 8 O 1027,6 25 0,0
23.05.2018 12:00:00 13,6 8,5 - - 13 7 O 1028,1 35 0,0
23.05.2018 11:00:00 12,8 8,5 - - 11 6 ONO 1028,2 35 0,0
23.05.2018 10:00:00 11,0 7,4 11,7 10,2 11 6 O 1028,3 35 0,0
23.05.2018 09:00:00 9,2 6,6 - - 4 2 ONO 1028,7 40 0,0
23.05.2018 08:00:00 8,5 6,0 - - 4 2 OZO 1028,3 35 0,0
23.05.2018 07:00:00 7,9 6,0 - - 5 3 ZO 1028,1 30 0,0
23.05.2018 06:00:00 7,7 5,9 - - 4 2 ONO 1027,6 40 0,0
23.05.2018 05:00:00 7,2 6,3 - - 2 1 O 1027,5 45 0,0
23.05.2018 04:00:00 7,4 6,3 - - 4 2 O 1027,6 35 0,0
23.05.2018 03:00:00 7,5 5,9 - - 0 0 N 1027,6 50 0,0
23.05.2018 02:00:00 7,6 6,0 - - 4 2 NNO 1027,5 45 0,0
23.05.2018 01:00:00 7,7 5,9 - - 4 2 NNO 1027,7 50 0,0
23.05.2018 00:00:00 7,9 6,2 - - 4 2 NNO 1027,7 40 0,0
22.05.2018 23:00:00 8,1 5,7 - - 4 2 NNO 1027,6 45 0,0
22.05.2018 22:00:00 8,3 5,9 - - 4 2 NNO 1027,3 40 0,0
22.05.2018 21:00:00 8,6 6,0 - - 4 2 NNW 1026,8 45 0,0
22.05.2018 20:00:00 8,9 6,1 - - 5 3 NNO 1026,6 30 0,0
22.05.2018 19:00:00 9,2 6,2 - - 5 3 N 1026,5 30 0,0
22.05.2018 18:00:00 9,3 6,4 - - 11 6 NNO 1026,6 30 0,0
22.05.2018 17:00:00 9,7 6,2 - - 11 6 N 1026,5 50 0,0
22.05.2018 16:00:00 10,0 6,8 - - 11 6 NNO 1026,5 50 0,0
22.05.2018 15:00:00 10,8 6,9 - - 9 5 ONO 1026,1 45 0,0
22.05.2018 14:00:00 10,5 6,9 - - 9 5 NNO 1026,1 50 0,0
22.05.2018 13:00:00 10,5 6,9 - - 9 5 NO 1026,0 40 0,0
22.05.2018 12:00:00 9,7 6,8 - - 11 6 N 1026,1 22 0,0
22.05.2018 11:00:00 9,2 6,3 - - 9 5 NNO 1026,4 35 0,0

tt = temperatuur
td = dauwpunt
tt -20cm = temperatuur -20cm
tt -100cm = temperatuur -100cm
ff = windsnelheid
dd = windrichting
ppp = luchtdruk
vv = zicht
rr = neerslag

Weerstations in de omgeving